Time,TemperatureF,DewpointF,PressureIn,WindDirection,WindDirectionDegrees,WindSpeedMPH,WindSpeedGustMPH,Humidity,HourlyPrecipIn,Conditions,Clouds,dailyrainin,SoftwareType,DateUTC
2013-08-23 00:01:00,69.2,66.4,29.05,NNW,331,3.3,4.0,90,0.00,,,0.00,proprietary,2013-08-23 04:01:00,
2013-08-23 00:03:00,69.2,66.3,29.05,NNW,335,3.9,4.8,90,0.00,,,0.00,proprietary,2013-08-23 04:03:00,
2013-08-23 00:04:00,69.3,66.4,29.06,NNW,346,2.9,4.0,90,0.00,,,0.00,proprietary,2013-08-23 04:04:00,
2013-08-23 00:08:00,69.4,66.4,29.06,NNW,338,5.0,6.5,90,0.00,,,0.00,proprietary,2013-08-23 04:08:00,
2013-08-23 00:10:00,69.4,66.5,29.06,NNW,340,4.7,5.5,90,0.00,,,0.00,proprietary,2013-08-23 04:10:00,
2013-08-23 00:15:00,69.4,66.6,29.06,NNW,339,5.5,6.8,90,0.00,,,0.00,proprietary,2013-08-23 04:15:00,
2013-08-23 00:20:00,69.6,66.7,29.06,NNW,341,4.8,6.0,90,0.00,,,0.00,proprietary,2013-08-23 04:20:00,
2013-08-23 00:26:00,69.7,66.6,29.06,NNW,327,3.7,4.6,90,0.00,,,0.00,proprietary,2013-08-23 04:26:00,
2013-08-23 00:31:00,69.7,66.6,29.06,NNW,346,5.3,8.1,89,0.00,,,0.00,proprietary,2013-08-23 04:31:00,
2013-08-23 00:36:00,69.7,66.6,29.07,NNW,340,5.3,6.2,89,0.00,,,0.00,proprietary,2013-08-23 04:36:00,
2013-08-23 00:41:00,69.7,66.7,29.07,NW,324,4.5,6.3,90,0.00,,,0.00,proprietary,2013-08-23 04:41:00,
2013-08-23 00:46:00,69.6,66.7,29.07,NW,319,4.6,5.8,90,0.00,,,0.00,proprietary,2013-08-23 04:46:00,
2013-08-23 00:51:00,69.5,66.6,29.07,NNW,329,4.4,5.9,90,0.00,,,0.00,proprietary,2013-08-23 04:51:00,
2013-08-23 00:56:00,69.4,66.5,29.07,NNW,342,2.8,4.0,90,0.00,,,0.00,proprietary,2013-08-23 04:56:00,
2013-08-23 01:01:00,69.3,66.5,29.07,NW,322,4.8,6.6,90,0.00,,,0.00,proprietary,2013-08-23 05:01:00,
2013-08-23 01:06:00,69.3,66.5,29.07,NNW,338,2.9,3.5,90,0.00,,,0.00,proprietary,2013-08-23 05:06:00,
2013-08-23 01:11:00,69.3,66.5,29.08,NW,322,4.0,5.6,90,0.00,,,0.00,proprietary,2013-08-23 05:11:00,
2013-08-23 01:16:00,69.2,66.4,29.08,NW,320,3.9,5.2,90,0.00,,,0.00,proprietary,2013-08-23 05:16:00,
2013-08-23 01:21:00,69.0,66.3,29.08,NNW,333,3.0,3.6,90,0.00,,,0.00,proprietary,2013-08-23 05:21:00,
2013-08-23 01:26:00,69.0,66.3,29.08,NNW,348,4.7,5.3,90,0.00,,,0.00,proprietary,2013-08-23 05:26:00,
2013-08-23 01:31:00,69.0,66.2,29.09,NNW,339,3.4,4.3,90,0.00,,,0.00,proprietary,2013-08-23 05:31:00,
2013-08-23 01:36:00,68.9,66.2,29.09,NNW,329,3.2,4.3,90,0.00,,,0.00,proprietary,2013-08-23 05:36:00,
2013-08-23 01:41:00,68.8,66.1,29.09,WNW,289,2.2,2.8,91,0.00,,,0.00,proprietary,2013-08-23 05:41:00,
2013-08-23 01:46:00,68.7,66.1,29.09,NW,326,2.2,2.5,91,0.00,,,0.00,proprietary,2013-08-23 05:46:00,
2013-08-23 01:52:00,68.6,66.1,29.09,NNW,336,2.5,2.9,91,0.00,,,0.00,proprietary,2013-08-23 05:52:00,
2013-08-23 01:57:00,68.5,66.1,29.09,NW,316,2.4,3.1,91,0.00,,,0.00,proprietary,2013-08-23 05:57:00,
2013-08-23 02:02:00,68.2,65.9,29.09,NW,316,2.0,2.2,92,0.00,,,0.00,proprietary,2013-08-23 06:02:00,
2013-08-23 02:07:00,68.0,65.9,29.09,NW,317,3.0,4.2,92,0.00,,,0.00,proprietary,2013-08-23 06:07:00,
2013-08-23 02:12:00,67.7,65.7,29.09,NW,310,2.9,4.1,93,0.00,,,0.00,proprietary,2013-08-23 06:12:00,
2013-08-23 02:17:00,67.6,65.7,29.09,NW,320,3.0,3.5,93,0.00,,,0.00,proprietary,2013-08-23 06:17:00,
2013-08-23 02:22:00,67.4,65.5,29.09,NNW,343,1.6,2.3,93,0.00,,,0.00,proprietary,2013-08-23 06:22:00,
2013-08-23 02:27:00,66.8,64.9,29.09,North,353,1.7,2.3,93,0.00,,,0.00,proprietary,2013-08-23 06:27:00,
2013-08-23 02:32:00,66.4,64.7,29.09,North,356,1.3,1.5,94,0.00,,,0.00,proprietary,2013-08-23 06:32:00,
2013-08-23 02:37:00,66.1,64.6,29.09,North,356,1.4,1.6,94,0.00,,,0.00,proprietary,2013-08-23 06:37:00,
2013-08-23 02:42:00,65.8,64.3,29.09,NNW,333,1.7,2.0,95,0.00,,,0.00,proprietary,2013-08-23 06:42:00,
2013-08-23 02:47:00,65.4,63.9,29.09,North,351,1.8,1.9,94,0.00,,,0.00,proprietary,2013-08-23 06:47:00,
2013-08-23 02:52:00,65.4,64.1,29.09,NNW,347,1.8,2.0,95,0.00,,,0.00,proprietary,2013-08-23 06:52:00,
2013-08-23 02:58:00,65.0,63.7,29.09,North,354,2.4,2.9,95,0.00,,,0.00,proprietary,2013-08-23 06:58:00,
2013-08-23 03:03:00,65.0,63.9,29.09,North,357,3.1,3.7,96,0.00,,,0.00,proprietary,2013-08-23 07:03:00,
2013-08-23 03:08:00,65.2,64.2,29.09,NNW,343,2.7,3.7,96,0.00,,,0.00,proprietary,2013-08-23 07:08:00,
2013-08-23 03:14:00,65.2,64.1,29.09,North,355,3.2,3.7,96,0.00,,,0.00,proprietary,2013-08-23 07:14:00,
2013-08-23 03:19:00,65.0,63.9,29.09,North,357,3.5,4.0,95,0.00,,,0.00,proprietary,2013-08-23 07:19:00,
2013-08-23 03:24:00,64.9,63.6,29.09,North,351,3.4,4.5,95,0.00,,,0.00,proprietary,2013-08-23 07:24:00,
2013-08-23 03:30:00,64.8,63.0,29.09,North,351,4.2,5.2,94,0.00,,,0.00,proprietary,2013-08-23 07:30:00,
2013-08-23 03:36:00,64.8,62.2,29.09,North,352,3.4,4.1,91,0.00,,,0.00,proprietary,2013-08-23 07:36:00,
2013-08-23 03:41:00,64.5,61.6,29.09,North,353,3.1,4.2,90,0.00,,,0.00,proprietary,2013-08-23 07:41:00,
2013-08-23 03:46:00,64.3,61.4,29.09,NNW,344,2.4,3.4,90,0.00,,,0.00,proprietary,2013-08-23 07:46:00,
2013-08-23 03:51:00,63.9,61.2,29.09,North,349,0.1,1.2,90,0.00,,,0.00,proprietary,2013-08-23 07:51:00,
2013-08-23 03:56:00,63.4,60.8,29.09,North,352,0.9,1.7,91,0.00,,,0.00,proprietary,2013-08-23 07:56:00,
2013-08-23 04:01:00,62.8,60.1,29.09,NW,326,0.5,1.9,90,0.00,,,0.00,proprietary,2013-08-23 08:01:00,
2013-08-23 04:06:00,62.4,60.2,29.09,North,0,0.0,0.0,92,0.00,,,0.00,proprietary,2013-08-23 08:06:00,
2013-08-23 04:11:00,62.0,60.0,29.09,NNW,332,0.6,1.4,92,0.00,,,0.00,proprietary,2013-08-23 08:11:00,
2013-08-23 04:16:00,61.7,59.9,29.09,NW,324,1.9,2.3,93,0.00,,,0.00,proprietary,2013-08-23 08:16:00,
2013-08-23 04:21:00,61.5,59.8,29.09,NW,325,0.2,1.3,94,0.00,,,0.00,proprietary,2013-08-23 08:21:00,
2013-08-23 04:26:00,61.1,59.3,29.09,NNW,342,1.5,2.3,93,0.00,,,0.00,proprietary,2013-08-23 08:26:00,
2013-08-23 04:31:00,61.1,59.5,29.09,NNW,337,1.0,1.5,94,0.00,,,0.00,proprietary,2013-08-23 08:31:00,
2013-08-23 04:36:00,60.8,59.1,29.09,North,0,0.0,0.0,94,0.00,,,0.00,proprietary,2013-08-23 08:36:00,
2013-08-23 04:41:00,60.6,59.0,29.09,NNW,337,1.6,1.9,94,0.00,,,0.00,proprietary,2013-08-23 08:41:00,
2013-08-23 04:46:00,60.6,59.1,29.09,NNW,333,1.7,1.8,94,0.00,,,0.00,proprietary,2013-08-23 08:46:00,
2013-08-23 04:52:00,60.3,58.7,29.09,NNW,339,0.6,1.4,94,0.00,,,0.00,proprietary,2013-08-23 08:52:00,
2013-08-23 04:57:00,60.0,58.4,29.09,NNW,339,1.5,1.6,94,0.00,,,0.00,proprietary,2013-08-23 08:57:00,
2013-08-23 05:02:00,60.0,58.5,29.09,NNW,340,1.7,2.0,94,0.00,,,0.00,proprietary,2013-08-23 09:02:00,
2013-08-23 05:07:00,59.9,58.3,29.09,NNW,347,0.8,1.2,94,0.00,,,0.00,proprietary,2013-08-23 09:07:00,
2013-08-23 05:12:00,59.7,58.2,29.09,NW,325,1.5,1.8,94,0.00,,,0.00,proprietary,2013-08-23 09:12:00,
2013-08-23 05:17:00,59.3,57.7,29.09,NNW,330,1.6,1.8,94,0.00,,,0.00,proprietary,2013-08-23 09:17:00,
2013-08-23 05:22:00,59.4,57.9,29.09,North,0,0.0,0.0,94,0.00,,,0.00,proprietary,2013-08-23 09:22:00,
2013-08-23 05:27:00,59.2,57.7,29.09,North,0,0.0,0.0,94,0.00,,,0.00,proprietary,2013-08-23 09:27:00,
2013-08-23 05:32:00,58.8,57.3,29.10,North,0,0.0,0.0,94,0.00,,,0.00,proprietary,2013-08-23 09:32:00,
2013-08-23 05:37:00,58.6,57.1,29.10,North,0,0.0,0.0,94,0.00,,,0.00,proprietary,2013-08-23 09:37:00,
2013-08-23 05:42:00,58.5,57.2,29.10,North,0,0.0,0.0,95,0.00,,,0.00,proprietary,2013-08-23 09:42:00,
2013-08-23 05:47:00,58.2,56.8,29.10,North,0,0.0,0.0,94,0.00,,,0.00,proprietary,2013-08-23 09:47:00,
2013-08-23 05:52:00,57.8,56.4,29.10,North,0,0.0,0.0,94,0.00,,,0.00,proprietary,2013-08-23 09:52:00,
2013-08-23 05:57:00,57.8,56.5,29.10,North,0,0.0,0.0,95,0.00,,,0.00,proprietary,2013-08-23 09:57:00,
2013-08-23 06:02:00,57.7,56.5,29.10,North,0,0.0,0.0,95,0.00,,,0.00,proprietary,2013-08-23 10:02:00,
2013-08-23 06:07:00,57.4,56.2,29.10,North,355,0.9,1.2,95,0.00,,,0.00,proprietary,2013-08-23 10:07:00,
2013-08-23 06:12:00,57.3,56.2,29.11,North,355,0.9,1.4,95,0.00,,,0.00,proprietary,2013-08-23 10:12:00,
2013-08-23 06:17:00,57.3,56.2,29.11,NNW,347,1.5,1.6,95,0.00,,,0.00,proprietary,2013-08-23 10:17:00,
2013-08-23 06:22:00,57.0,55.8,29.11,NNW,333,0.3,1.3,95,0.00,,,0.00,proprietary,2013-08-23 10:22:00,
2013-08-23 06:27:00,56.8,55.5,29.11,North,0,0.0,0.0,95,0.00,,,0.00,proprietary,2013-08-23 10:27:00,
2013-08-23 06:32:00,56.5,55.2,29.11,NW,319,1.5,1.8,95,0.00,,,0.00,proprietary,2013-08-23 10:32:00,
2013-08-23 06:37:00,56.3,55.0,29.11,NW,321,0.7,1.4,95,0.00,,,0.00,proprietary,2013-08-23 10:37:00,
2013-08-23 06:42:00,56.2,55.0,29.11,North,0,0.0,0.0,95,0.00,,,0.00,proprietary,2013-08-23 10:42:00,
2013-08-23 06:47:00,55.9,54.6,29.11,North,0,0.0,0.0,95,0.00,,,0.00,proprietary,2013-08-23 10:47:00,
2013-08-23 06:52:00,55.7,54.5,29.11,NW,322,0.3,1.4,95,0.00,,,0.00,proprietary,2013-08-23 10:52:00,
2013-08-23 06:57:00,55.6,54.3,29.12,North,0,0.0,0.0,95,0.00,,,0.00,proprietary,2013-08-23 10:57:00,
2013-08-23 07:02:00,55.7,54.5,29.12,NW,322,1.0,1.6,95,0.00,,,0.00,proprietary,2013-08-23 11:02:00,
2013-08-23 07:07:00,55.7,54.6,29.12,NNW,328,1.8,2.1,95,0.00,,,0.00,proprietary,2013-08-23 11:07:00,
2013-08-23 07:12:00,56.2,55.0,29.12,North,0,0.0,0.0,95,0.00,,,0.00,proprietary,2013-08-23 11:12:00,
2013-08-23 07:17:00,56.2,55.0,29.12,North,0,0.0,0.0,95,0.00,,,0.00,proprietary,2013-08-23 11:17:00,
2013-08-23 07:22:00,56.3,55.0,29.13,NNW,334,1.8,2.3,95,0.00,,,0.00,proprietary,2013-08-23 11:22:00,
2013-08-23 07:27:00,56.0,54.5,29.13,North,349,1.6,2.0,94,0.00,,,0.00,proprietary,2013-08-23 11:27:00,
2013-08-23 07:32:00,56.0,54.5,29.13,NNW,340,1.0,1.5,94,0.00,,,0.00,proprietary,2013-08-23 11:32:00,
2013-08-23 07:37:00,56.0,54.6,29.13,North,0,0.0,0.0,95,0.00,,,0.00,proprietary,2013-08-23 11:37:00,
2013-08-23 07:42:00,56.5,55.1,29.14,North,0,0.0,0.0,95,0.00,,,0.00,proprietary,2013-08-23 11:42:00,
2013-08-23 07:47:00,57.0,55.6,29.14,North,356,0.6,1.4,94,0.00,,,0.00,proprietary,2013-08-23 11:47:00,
2013-08-23 07:52:00,57.5,55.8,29.14,North,0,0.0,0.0,93,0.00,,,0.00,proprietary,2013-08-23 11:52:00,
2013-08-23 07:57:00,57.9,55.9,29.14,North,355,1.1,1.5,93,0.00,,,0.00,proprietary,2013-08-23 11:57:00,
2013-08-23 08:02:00,58.5,56.0,29.14,North,7,0.3,1.5,91,0.00,,,0.00,proprietary,2013-08-23 12:02:00,
2013-08-23 08:07:00,58.9,56.3,29.14,North,356,1.6,2.0,91,0.00,,,0.00,proprietary,2013-08-23 12:07:00,
2013-08-23 08:12:00,59.4,56.5,29.14,North,354,2.0,2.4,90,0.00,,,0.00,proprietary,2013-08-23 12:12:00,
2013-08-23 08:17:00,60.5,56.9,29.14,North,8,2.8,4.0,87,0.00,,,0.00,proprietary,2013-08-23 12:17:00,
2013-08-23 08:22:00,61.4,56.7,29.14,North,354,3.0,3.9,84,0.00,,,0.00,proprietary,2013-08-23 12:22:00,
2013-08-23 08:27:00,62.2,56.9,29.14,North,4,3.8,4.5,82,0.00,,,0.00,proprietary,2013-08-23 12:27:00,
2013-08-23 08:32:00,62.9,56.5,29.15,North,358,4.8,6.2,79,0.00,,,0.00,proprietary,2013-08-23 12:32:00,
2013-08-23 08:37:00,63.4,56.3,29.14,North,354,3.2,3.8,77,0.00,,,0.00,proprietary,2013-08-23 12:37:00,
2013-08-23 08:42:00,63.8,56.4,29.15,North,357,3.4,3.7,76,0.00,,,0.00,proprietary,2013-08-23 12:42:00,
2013-08-23 08:47:00,64.8,56.7,29.15,NNE,14,3.5,3.8,74,0.00,,,0.00,proprietary,2013-08-23 12:47:00,
2013-08-23 08:52:00,65.7,56.6,29.15,North,357,2.0,2.6,72,0.00,,,0.00,proprietary,2013-08-23 12:52:00,
2013-08-23 08:57:00,65.9,56.8,29.15,NNE,26,2.8,3.2,72,0.00,,,0.00,proprietary,2013-08-23 12:57:00,
2013-08-23 09:02:00,66.1,56.3,29.15,North,1,3.5,4.8,70,0.00,,,0.00,proprietary,2013-08-23 13:02:00,
2013-08-23 09:07:00,66.7,56.8,29.15,NNW,347,3.7,4.5,70,0.00,,,0.00,proprietary,2013-08-23 13:07:00,
2013-08-23 09:12:00,66.8,56.5,29.15,North,9,4.5,6.2,69,0.00,,,0.00,proprietary,2013-08-23 13:12:00,
2013-08-23 09:17:00,67.3,56.4,29.15,NNE,16,4.0,4.9,67,0.00,,,0.00,proprietary,2013-08-23 13:17:00,
2013-08-23 09:22:00,67.4,55.7,29.15,North,357,4.8,5.9,66,0.00,,,0.00,proprietary,2013-08-23 13:22:00,
2013-08-23 09:27:00,67.5,55.5,29.15,North,357,4.3,6.2,65,0.00,,,0.00,proprietary,2013-08-23 13:27:00,
2013-08-23 09:32:00,67.7,55.3,29.15,North,4,4.8,7.1,64,0.00,,,0.00,proprietary,2013-08-23 13:32:00,
2013-08-23 09:37:00,68.0,55.4,29.16,North,9,4.1,5.3,64,0.00,,,0.00,proprietary,2013-08-23 13:37:00,
2013-08-23 09:42:00,68.6,56.0,29.16,NNE,12,3.3,4.2,64,0.00,,,0.00,proprietary,2013-08-23 13:42:00,
2013-08-23 09:47:00,69.0,56.0,29.16,NNE,15,3.4,4.3,63,0.00,,,0.00,proprietary,2013-08-23 13:47:00,
2013-08-23 09:52:00,69.2,56.4,29.16,North,356,3.8,4.8,63,0.00,,,0.00,proprietary,2013-08-23 13:52:00,
2013-08-23 09:57:00,69.4,56.8,29.16,North,6,3.6,4.5,64,0.00,,,0.00,proprietary,2013-08-23 13:57:00,
2013-08-23 10:02:00,69.6,56.7,29.16,North,349,3.3,5.0,63,0.00,,,0.00,proprietary,2013-08-23 14:02:00,
2013-08-23 10:07:00,69.9,56.4,29.16,NNW,336,4.5,5.7,62,0.00,,,0.00,proprietary,2013-08-23 14:07:00,
2013-08-23 10:12:00,69.9,55.7,29.16,North,7,4.4,6.0,60,0.00,,,0.00,proprietary,2013-08-23 14:12:00,
2013-08-23 10:17:00,70.0,55.4,29.16,NNW,332,4.7,5.9,59,0.00,,,0.00,proprietary,2013-08-23 14:17:00,
2013-08-23 10:22:00,70.4,55.8,29.17,NNW,347,5.5,8.4,59,0.00,,,0.00,proprietary,2013-08-23 14:22:00,
2013-08-23 10:27:00,70.6,55.9,29.17,NNW,340,3.7,5.1,59,0.00,,,0.00,proprietary,2013-08-23 14:27:00,
2013-08-23 10:32:00,71.3,57.2,29.17,NNW,338,3.7,5.4,60,0.00,,,0.00,proprietary,2013-08-23 14:32:00,
2013-08-23 10:37:00,71.8,54.9,29.17,NNW,348,4.9,6.1,55,0.00,,,0.00,proprietary,2013-08-23 14:37:00,
2013-08-23 10:42:00,72.5,56.5,29.17,North,3,2.9,3.9,57,0.00,,,0.00,proprietary,2013-08-23 14:42:00,
2013-08-23 10:47:00,72.2,54.9,29.17,NNE,25,3.1,5.5,54,0.00,,,0.00,proprietary,2013-08-23 14:47:00,
2013-08-23 10:52:00,72.6,55.8,29.18,NW,325,3.8,5.2,55,0.00,,,0.00,proprietary,2013-08-23 14:52:00,
2013-08-23 10:57:00,72.9,55.2,29.18,NNE,12,5.6,7.0,53,0.00,,,0.00,proprietary,2013-08-23 14:57:00,
2013-08-23 11:02:00,73.4,54.7,29.18,NNW,338,3.9,5.3,51,0.00,,,0.00,proprietary,2013-08-23 15:02:00,
2013-08-23 11:07:00,73.8,53.8,29.18,NNW,338,5.8,7.8,49,0.00,,,0.00,proprietary,2013-08-23 15:07:00,
2013-08-23 11:12:00,74.2,55.3,29.18,North,2,5.7,7.8,51,0.00,,,0.00,proprietary,2013-08-23 15:12:00,
2013-08-23 11:17:00,74.1,53.1,29.18,NNW,342,6.1,7.9,47,0.00,,,0.00,proprietary,2013-08-23 15:17:00,
2013-08-23 11:22:00,74.3,53.3,29.18,NNW,342,5.9,6.5,47,0.00,,,0.00,proprietary,2013-08-23 15:22:00,
2013-08-23 11:27:00,74.6,52.8,29.18,North,356,5.3,7.9,46,0.00,,,0.00,proprietary,2013-08-23 15:27:00,
2013-08-23 11:32:00,74.7,54.0,29.18,North,349,5.4,7.2,48,0.00,,,0.00,proprietary,2013-08-23 15:32:00,
2013-08-23 11:37:00,75.0,52.5,29.18,North,358,5.3,6.7,45,0.00,,,0.00,proprietary,2013-08-23 15:37:00,
2013-08-23 11:42:00,74.7,52.7,29.18,NNE,13,4.5,6.1,46,0.00,,,0.00,proprietary,2013-08-23 15:42:00,
2013-08-23 11:47:00,75.4,52.3,29.17,NNW,345,6.1,9.0,44,0.00,,,0.00,proprietary,2013-08-23 15:47:00,
2013-08-23 11:52:00,75.2,51.8,29.17,NW,324,6.6,10.0,44,0.00,,,0.00,proprietary,2013-08-23 15:52:00,
2013-08-23 11:57:00,75.6,50.6,29.17,NNE,16,5.9,8.5,41,0.00,,,0.00,proprietary,2013-08-23 15:57:00,
2013-08-23 12:02:00,75.9,52.7,29.17,North,1,4.0,5.9,44,0.00,,,0.00,proprietary,2013-08-23 16:02:00,
2013-08-23 12:07:00,76.0,50.5,29.17,NNW,338,7.9,10.1,40,0.00,,,0.00,proprietary,2013-08-23 16:07:00,
2013-08-23 12:12:00,75.9,48.8,29.17,NNW,342,8.5,9.1,38,0.00,,,0.00,proprietary,2013-08-23 16:12:00,
2013-08-23 12:17:00,75.9,50.0,29.17,NNE,20,6.1,7.8,40,0.00,,,0.00,proprietary,2013-08-23 16:17:00,
2013-08-23 12:22:00,76.7,51.6,29.17,NNE,19,5.8,8.3,41,0.00,,,0.00,proprietary,2013-08-23 16:22:00,
2013-08-23 12:27:00,76.7,50.6,29.17,North,352,6.5,8.6,39,0.00,,,0.00,proprietary,2013-08-23 16:27:00,
2013-08-23 12:32:00,76.6,50.3,29.17,NNW,327,7.5,9.1,39,0.00,,,0.00,proprietary,2013-08-23 16:32:00,
2013-08-23 12:37:00,76.4,49.4,29.17,NNW,337,6.2,8.6,38,0.00,,,0.00,proprietary,2013-08-23 16:37:00,
2013-08-23 12:42:00,76.8,48.4,29.17,North,355,4.4,6.0,36,0.00,,,0.00,proprietary,2013-08-23 16:42:00,
2013-08-23 12:47:00,76.4,48.2,29.17,NNW,341,5.3,7.3,36,0.00,,,0.00,proprietary,2013-08-23 16:47:00,
2013-08-23 12:52:00,76.8,49.8,29.17,North,4,6.6,8.5,38,0.00,,,0.00,proprietary,2013-08-23 16:52:00,
2013-08-23 12:57:00,76.7,47.5,29.17,North,349,5.9,9.8,35,0.00,,,0.00,proprietary,2013-08-23 16:57:00,
2013-08-23 13:02:00,76.6,49.4,29.17,NW,319,8.0,10.1,38,0.00,,,0.00,proprietary,2013-08-23 17:02:00,
2013-08-23 13:07:00,76.9,49.6,29.17,NW,322,7.7,9.8,38,0.00,,,0.00,proprietary,2013-08-23 17:07:00,
2013-08-23 13:12:00,77.1,46.4,29.17,NNW,341,8.6,12.1,33,0.00,,,0.00,proprietary,2013-08-23 17:12:00,
2013-08-23 13:17:00,77.1,48.5,29.17,NW,320,7.4,9.8,36,0.00,,,0.00,proprietary,2013-08-23 17:17:00,
2013-08-23 13:22:00,76.5,46.2,29.17,NW,317,5.1,7.8,34,0.00,,,0.00,proprietary,2013-08-23 17:22:00,
2013-08-23 13:27:00,76.9,48.2,29.17,NNW,339,9.0,10.8,36,0.00,,,0.00,proprietary,2013-08-23 17:27:00,
2013-08-23 13:33:00,77.1,46.8,29.16,North,350,4.6,7.8,34,0.00,,,0.00,proprietary,2013-08-23 17:33:00,
2013-08-23 13:38:00,77.9,48.9,29.16,NNE,14,7.1,9.1,36,0.00,,,0.00,proprietary,2013-08-23 17:38:00,
2013-08-23 13:43:00,77.2,47.7,29.16,NNW,348,1.7,3.4,35,0.00,,,0.00,proprietary,2013-08-23 17:43:00,
2013-08-23 13:48:00,77.3,46.8,29.16,NNW,343,8.3,12.0,33,0.00,,,0.00,proprietary,2013-08-23 17:48:00,
2013-08-23 13:53:00,77.3,48.0,29.16,NW,321,7.1,8.8,35,0.00,,,0.00,proprietary,2013-08-23 17:53:00,
2013-08-23 13:58:00,78.1,49.8,29.16,NNW,333,5.7,9.0,37,0.00,,,0.00,proprietary,2013-08-23 17:58:00,
2013-08-23 14:03:00,77.7,47.8,29.16,NNW,336,8.7,11.2,34,0.00,,,0.00,proprietary,2013-08-23 18:03:00,
2013-08-23 14:08:00,77.9,47.8,29.16,North,6,6.6,7.9,34,0.00,,,0.00,proprietary,2013-08-23 18:08:00,
2013-08-23 14:13:00,78.0,49.5,29.16,North,356,4.3,5.6,36,0.00,,,0.00,proprietary,2013-08-23 18:13:00,
2013-08-23 14:18:00,78.6,46.9,29.16,North,1,5.4,6.5,32,0.00,,,0.00,proprietary,2013-08-23 18:18:00,
2013-08-23 14:23:00,78.1,46.8,29.16,NNW,330,6.9,8.9,33,0.00,,,0.00,proprietary,2013-08-23 18:23:00,
2013-08-23 14:28:00,77.9,45.7,29.16,NNW,329,5.3,6.3,31,0.00,,,0.00,proprietary,2013-08-23 18:28:00,
2013-08-23 14:33:00,78.5,47.1,29.16,NNE,23,6.8,9.6,33,0.00,,,0.00,proprietary,2013-08-23 18:33:00,
2013-08-23 14:38:00,78.2,47.7,29.16,North,357,3.7,5.9,34,0.00,,,0.00,proprietary,2013-08-23 18:38:00,
2013-08-23 14:43:00,78.4,44.4,29.16,North,350,6.0,9.2,29,0.00,,,0.00,proprietary,2013-08-23 18:43:00,
2013-08-23 14:48:00,78.8,46.7,29.16,NNE,15,5.3,7.5,32,0.00,,,0.00,proprietary,2013-08-23 18:48:00,
2013-08-23 14:53:00,78.8,44.0,29.16,NNW,347,7.2,8.7,29,0.00,,,0.00,proprietary,2013-08-23 18:53:00,
2013-08-23 14:58:00,78.3,49.4,29.16,North,7,4.7,8.0,36,0.00,,,0.00,proprietary,2013-08-23 18:58:00,
2013-08-23 15:03:00,78.7,46.7,29.16,North,6,5.2,8.2,32,0.00,,,0.00,proprietary,2013-08-23 19:03:00,
2013-08-23 15:08:00,79.3,46.8,29.16,North,354,7.6,9.0,31,0.00,,,0.00,proprietary,2013-08-23 19:08:00,
2013-08-23 15:13:00,79.0,45.2,29.16,NNW,339,8.6,10.8,30,0.00,,,0.00,proprietary,2013-08-23 19:13:00,
2013-08-23 15:18:00,79.0,48.2,29.15,North,350,4.6,6.0,33,0.00,,,0.00,proprietary,2013-08-23 19:18:00,
2013-08-23 15:23:00,79.0,46.6,29.15,North,358,4.7,6.2,31,0.00,,,0.00,proprietary,2013-08-23 19:23:00,
2013-08-23 15:28:00,78.6,46.8,29.15,NW,304,7.0,9.5,32,0.00,,,0.00,proprietary,2013-08-23 19:28:00,
2013-08-23 15:33:00,79.5,46.1,29.15,NNW,330,5.9,7.2,30,0.00,,,0.00,proprietary,2013-08-23 19:33:00,
2013-08-23 15:38:00,80.0,45.1,29.15,NNW,340,4.2,5.5,29,0.00,,,0.00,proprietary,2013-08-23 19:38:00,
2013-08-23 15:43:00,79.7,45.8,29.15,NNE,14,6.9,9.1,30,0.00,,,0.00,proprietary,2013-08-23 19:43:00,
2013-08-23 15:48:00,79.7,45.5,29.15,North,5,6.1,9.3,29,0.00,,,0.00,proprietary,2013-08-23 19:48:00,
2013-08-23 15:53:00,79.4,43.8,29.15,North,352,6.6,8.7,28,0.00,,,0.00,proprietary,2013-08-23 19:53:00,
2013-08-23 15:58:00,79.1,43.5,29.15,NW,319,3.0,4.8,28,0.00,,,0.00,proprietary,2013-08-23 19:58:00,
2013-08-23 16:03:00,79.6,45.6,29.15,NNW,341,3.8,6.8,30,0.00,,,0.00,proprietary,2013-08-23 20:03:00,
2013-08-23 16:08:00,79.4,46.0,29.15,North,354,5.4,7.9,30,0.00,,,0.00,proprietary,2013-08-23 20:08:00,
2013-08-23 16:13:00,79.3,46.7,29.15,North,5,7.1,8.3,31,0.00,,,0.00,proprietary,2013-08-23 20:13:00,
2013-08-23 16:18:00,79.2,47.6,29.14,NNE,24,6.1,8.2,32,0.00,,,0.00,proprietary,2013-08-23 20:18:00,
2013-08-23 16:23:00,79.7,48.1,29.14,North,355,4.4,6.2,32,0.00,,,0.00,proprietary,2013-08-23 20:23:00,
2013-08-23 16:28:00,79.4,48.3,29.14,North,355,5.5,7.4,33,0.00,,,0.00,proprietary,2013-08-23 20:28:00,
2013-08-23 16:33:00,78.7,48.8,29.14,NNW,333,1.9,3.1,35,0.00,,,0.00,proprietary,2013-08-23 20:33:00,
2013-08-23 16:38:00,80.0,48.6,29.14,NNW,335,5.6,6.6,33,0.00,,,0.00,proprietary,2013-08-23 20:38:00,
2013-08-23 16:43:00,79.1,47.3,29.14,NNW,340,5.0,6.5,32,0.00,,,0.00,proprietary,2013-08-23 20:43:00,
2013-08-23 16:48:00,79.7,47.2,29.14,North,11,6.2,7.7,31,0.00,,,0.00,proprietary,2013-08-23 20:48:00,
2013-08-23 16:53:00,79.9,47.5,29.14,NNW,346,4.4,5.4,32,0.00,,,0.00,proprietary,2013-08-23 20:53:00,
2013-08-23 16:58:00,78.9,47.1,29.14,WNW,283,2.5,2.8,32,0.00,,,0.00,proprietary,2013-08-23 20:58:00,
2013-08-23 17:03:00,79.7,48.3,29.14,NW,314,3.2,4.6,33,0.00,,,0.00,proprietary,2013-08-23 21:03:00,
2013-08-23 17:08:00,79.8,47.8,29.14,North,3,2.1,4.1,32,0.00,,,0.00,proprietary,2013-08-23 21:08:00,
2013-08-23 17:13:00,79.2,51.4,29.14,North,1,0.7,2.1,37,0.00,,,0.00,proprietary,2013-08-23 21:13:00,
2013-08-23 17:18:00,79.2,50.6,29.14,North,354,6.3,7.7,36,0.00,,,0.00,proprietary,2013-08-23 21:18:00,
2013-08-23 17:23:00,79.0,51.7,29.14,NNW,341,3.4,4.8,38,0.00,,,0.00,proprietary,2013-08-23 21:23:00,
2013-08-23 17:28:00,78.3,51.5,29.14,North,6,2.7,3.8,39,0.00,,,0.00,proprietary,2013-08-23 21:28:00,
2013-08-23 17:33:00,77.4,50.7,29.14,West,280,2.7,5.2,39,0.00,,,0.00,proprietary,2013-08-23 21:33:00,
2013-08-23 17:38:00,77.8,51.9,29.14,SE,136,2.6,3.4,40,0.00,,,0.00,proprietary,2013-08-23 21:38:00,
2013-08-23 17:43:00,78.0,50.5,29.14,NE,55,0.3,1.9,38,0.00,,,0.00,proprietary,2013-08-23 21:43:00,
2013-08-23 17:48:00,78.7,52.8,29.14,NNE,14,4.3,6.9,40,0.00,,,0.00,proprietary,2013-08-23 21:48:00,
2013-08-23 17:53:00,79.2,52.1,29.14,North,359,4.7,6.0,38,0.00,,,0.00,proprietary,2013-08-23 21:53:00,
2013-08-23 17:58:00,79.2,52.7,29.14,North,1,5.1,6.0,39,0.00,,,0.00,proprietary,2013-08-23 21:58:00,
2013-08-23 18:03:00,78.3,50.2,29.14,NNE,25,2.8,4.3,37,0.00,,,0.00,proprietary,2013-08-23 22:03:00,
2013-08-23 18:08:00,77.6,48.8,29.14,North,2,4.1,5.6,36,0.00,,,0.00,proprietary,2013-08-23 22:08:00,
2013-08-23 18:13:00,77.6,51.0,29.14,North,5,2.5,3.3,39,0.00,,,0.00,proprietary,2013-08-23 22:13:00,
2013-08-23 18:18:00,78.5,50.8,29.14,North,6,6.2,7.9,38,0.00,,,0.00,proprietary,2013-08-23 22:18:00,
2013-08-23 18:23:00,78.7,51.5,29.14,North,7,4.0,4.8,38,0.00,,,0.00,proprietary,2013-08-23 22:23:00,
2013-08-23 18:28:00,79.0,52.4,29.14,North,10,2.9,3.7,39,0.00,,,0.00,proprietary,2013-08-23 22:28:00,
2013-08-23 18:33:00,77.8,52.2,29.14,East,85,1.0,2.4,40,0.00,,,0.00,proprietary,2013-08-23 22:33:00,
2013-08-23 18:38:00,77.6,53.1,29.14,North,349,3.3,3.9,42,0.00,,,0.00,proprietary,2013-08-23 22:38:00,
2013-08-23 18:43:00,78.6,53.6,29.14,North,353,3.5,4.1,41,0.00,,,0.00,proprietary,2013-08-23 22:43:00,
2013-08-23 18:48:00,78.4,53.2,29.14,North,351,1.7,3.4,41,0.00,,,0.00,proprietary,2013-08-23 22:48:00,
2013-08-23 18:53:00,78.0,52.7,29.14,North,353,2.4,2.9,41,0.00,,,0.00,proprietary,2013-08-23 22:53:00,
2013-08-23 18:58:00,78.3,54.0,29.14,North,354,3.3,4.0,43,0.00,,,0.00,proprietary,2013-08-23 22:58:00,
2013-08-23 19:03:00,78.2,54.2,29.14,NE,35,1.4,2.6,43,0.00,,,0.00,proprietary,2013-08-23 23:03:00,
2013-08-23 19:08:00,78.2,53.5,29.14,North,1,2.3,3.5,42,0.00,,,0.00,proprietary,2013-08-23 23:08:00,
2013-08-23 19:13:00,78.0,54.5,29.14,North,359,2.3,3.1,44,0.00,,,0.00,proprietary,2013-08-23 23:13:00,
2013-08-23 19:18:00,77.8,55.2,29.14,North,356,2.8,3.9,45,0.00,,,0.00,proprietary,2013-08-23 23:18:00,
2013-08-23 19:23:00,76.9,55.0,29.14,NNW,335,3.5,4.1,46,0.00,,,0.00,proprietary,2013-08-23 23:23:00,
2013-08-23 19:28:00,76.8,54.8,29.14,NNW,335,2.5,3.1,46,0.00,,,0.00,proprietary,2013-08-23 23:28:00,
2013-08-23 19:33:00,77.1,55.6,29.14,NW,321,1.9,2.3,47,0.00,,,0.00,proprietary,2013-08-23 23:33:00,
2013-08-23 19:38:00,76.2,55.2,29.14,WNW,301,0.9,1.8,48,0.00,,,0.00,proprietary,2013-08-23 23:38:00,
2013-08-23 19:43:00,75.8,57.3,29.14,North,0,0.0,0.0,52,0.00,,,0.00,proprietary,2013-08-23 23:43:00,
2013-08-23 19:48:00,75.4,59.5,29.14,NW,309,0.1,1.1,57,0.00,,,0.00,proprietary,2013-08-23 23:48:00,
2013-08-23 19:53:00,74.7,58.4,29.14,North,0,0.0,0.0,56,0.00,,,0.00,proprietary,2013-08-23 23:53:00,
2013-08-23 19:58:00,74.0,59.3,29.14,North,0,0.0,0.0,60,0.00,,,0.00,proprietary,2013-08-23 23:58:00,
2013-08-23 20:03:00,73.2,58.6,29.14,NW,305,0.7,1.5,60,0.00,,,0.00,proprietary,2013-08-24 00:03:00,
2013-08-23 20:09:00,72.2,58.8,29.14,North,0,0.0,0.0,62,0.00,,,0.00,proprietary,2013-08-24 00:09:00,
2013-08-23 20:14:00,71.3,58.2,29.14,WNW,292,0.6,1.6,63,0.00,,,0.00,proprietary,2013-08-24 00:14:00,
2013-08-23 20:19:00,69.2,59.6,29.14,NW,318,2.1,2.3,71,0.00,,,0.00,proprietary,2013-08-24 00:19:00,
2013-08-23 20:24:00,68.0,59.0,29.15,NW,310,0.4,1.4,72,0.00,,,0.00,proprietary,2013-08-24 00:24:00,
2013-08-23 20:29:00,67.4,59.0,29.15,North,0,0.0,0.0,74,0.00,,,0.00,proprietary,2013-08-24 00:29:00,
2013-08-23 20:35:00,67.0,58.9,29.15,North,0,0.0,0.0,75,0.00,,,0.00,proprietary,2013-08-24 00:35:00,
2013-08-23 20:40:00,66.5,58.4,29.15,North,0,0.0,0.0,75,0.00,,,0.00,proprietary,2013-08-24 00:40:00,
2013-08-23 20:45:00,66.1,58.4,29.15,North,0,0.0,0.0,76,0.00,,,0.00,proprietary,2013-08-24 00:45:00,
2013-08-23 20:50:00,65.3,59.0,29.15,North,0,0.0,0.0,79,0.00,,,0.00,proprietary,2013-08-24 00:50:00,
2013-08-23 20:55:00,64.5,58.9,29.15,North,0,0.0,0.0,82,0.00,,,0.00,proprietary,2013-08-24 00:55:00,
2013-08-23 21:00:00,64.1,58.8,29.16,North,0,0.0,0.0,82,0.00,,,0.00,proprietary,2013-08-24 01:00:00,
2013-08-23 21:06:00,63.4,58.3,29.16,North,0,0.0,0.0,83,0.00,,,0.00,proprietary,2013-08-24 01:06:00,
2013-08-23 21:11:00,63.1,58.2,29.16,NW,310,1.1,1.4,83,0.00,,,0.00,proprietary,2013-08-24 01:11:00,
2013-08-23 21:16:00,63.0,57.6,29.16,North,0,0.0,0.0,82,0.00,,,0.00,proprietary,2013-08-24 01:16:00,
2013-08-23 21:21:00,62.4,57.3,29.17,WNW,297,0.3,1.5,83,0.00,,,0.00,proprietary,2013-08-24 01:21:00,
2013-08-23 21:26:00,62.7,57.5,29.17,North,0,0.0,0.0,82,0.00,,,0.00,proprietary,2013-08-24 01:26:00,
2013-08-23 21:31:00,63.0,57.5,29.17,North,0,0.0,0.0,82,0.00,,,0.00,proprietary,2013-08-24 01:31:00,
2013-08-23 21:36:00,62.0,56.8,29.17,North,0,0.0,0.0,83,0.00,,,0.00,proprietary,2013-08-24 01:36:00,
2013-08-23 21:41:00,61.4,56.8,29.17,NW,312,1.5,1.6,84,0.00,,,0.00,proprietary,2013-08-24 01:41:00,
2013-08-23 21:46:00,61.4,56.8,29.17,North,0,0.0,0.0,84,0.00,,,0.00,proprietary,2013-08-24 01:46:00,
2013-08-23 21:51:00,61.4,56.7,29.18,North,0,0.0,0.0,84,0.00,,,0.00,proprietary,2013-08-24 01:51:00,
2013-08-23 21:56:00,61.2,56.8,29.18,North,0,0.0,0.0,85,0.00,,,0.00,proprietary,2013-08-24 01:56:00,
2013-08-23 22:01:00,61.2,56.4,29.18,NNW,345,0.4,1.3,84,0.00,,,0.00,proprietary,2013-08-24 02:01:00,
2013-08-23 22:06:00,60.9,56.4,29.18,NW,322,0.3,1.3,84,0.00,,,0.00,proprietary,2013-08-24 02:06:00,
2013-08-23 22:11:00,60.7,56.5,29.18,NW,322,0.6,1.4,85,0.00,,,0.00,proprietary,2013-08-24 02:11:00,
2013-08-23 22:16:00,60.7,56.5,29.18,North,0,0.0,0.0,86,0.00,,,0.00,proprietary,2013-08-24 02:16:00,
2013-08-23 22:21:00,60.9,56.8,29.18,North,0,0.0,0.0,86,0.00,,,0.00,proprietary,2013-08-24 02:21:00,
2013-08-23 22:26:00,61.3,57.1,29.18,North,0,0.0,0.0,85,0.00,,,0.00,proprietary,2013-08-24 02:26:00,
2013-08-23 22:31:00,61.7,56.9,29.19,North,0,0.0,0.0,84,0.00,,,0.00,proprietary,2013-08-24 02:31:00,
2013-08-23 22:36:00,62.5,56.2,29.19,WNW,290,1.2,1.9,79,0.00,,,0.00,proprietary,2013-08-24 02:36:00,
2013-08-23 22:41:00,63.2,55.5,29.19,West,268,1.1,3.4,76,0.00,,,0.00,proprietary,2013-08-24 02:41:00,
2013-08-23 22:46:00,63.9,55.4,29.19,NW,307,0.3,1.5,73,0.00,,,0.00,proprietary,2013-08-24 02:46:00,
2013-08-23 22:51:00,64.7,55.1,29.19,ENE,74,0.2,1.5,71,0.00,,,0.00,proprietary,2013-08-24 02:51:00,
2013-08-23 22:56:00,65.0,55.3,29.19,North,0,0.0,0.0,70,0.00,,,0.00,proprietary,2013-08-24 02:56:00,
2013-08-23 23:01:00,64.4,54.9,29.20,North,0,0.0,0.0,71,0.00,,,0.00,proprietary,2013-08-24 03:01:00,
2013-08-23 23:06:00,64.3,54.6,29.20,North,0,0.0,0.0,70,0.00,,,0.00,proprietary,2013-08-24 03:06:00,
2013-08-23 23:11:00,64.1,54.4,29.20,West,281,0.3,1.3,70,0.00,,,0.00,proprietary,2013-08-24 03:11:00,
2013-08-23 23:16:00,63.8,54.5,29.20,North,0,0.0,0.0,71,0.00,,,0.00,proprietary,2013-08-24 03:16:00,
2013-08-23 23:21:00,63.6,54.1,29.20,North,0,0.0,0.0,71,0.00,,,0.00,proprietary,2013-08-24 03:21:00,
2013-08-23 23:26:00,63.2,54.2,29.20,North,0,0.0,0.0,72,0.00,,,0.00,proprietary,2013-08-24 03:26:00,
2013-08-23 23:31:00,62.7,54.0,29.20,North,0,0.0,0.0,73,0.00,,,0.00,proprietary,2013-08-24 03:31:00,
2013-08-23 23:36:00,62.3,53.6,29.20,SE,129,1.4,2.4,73,0.00,,,0.00,proprietary,2013-08-24 03:36:00,
2013-08-23 23:41:00,62.8,53.8,29.20,SE,137,0.4,1.5,72,0.00,,,0.00,proprietary,2013-08-24 03:41:00,
2013-08-23 23:46:00,62.4,53.8,29.20,North,0,0.0,0.0,73,0.00,,,0.00,proprietary,2013-08-24 03:46:00,
2013-08-23 23:51:00,62.1,54.2,29.21,North,0,0.0,0.0,75,0.00,,,0.00,proprietary,2013-08-24 03:51:00,
2013-08-23 23:56:00,61.5,54.2,29.21,North,0,0.0,0.0,77,0.00,,,0.00,proprietary,2013-08-24 03:56:00,